GW0603 Weather Reports


time (UTC)temp
C
wind
direction
speed
KPH
gust
KPH
rain 1hr
cm
rain 24hr
cm
rain mn
cm
humidity
%
barometer
mb
20260906051610 19 0 0.0 0.0 0.00 0.00 0.00 94 1013.0
20260906050111 20 0 0.0 0.0 0.00 0.00 0.00 93 1013.2
20260906044605 20 0 0.0 0.0 0.00 0.00 0.00 93 1013.1
20260906043108 20 0 0.0 0.0 0.00 0.00 0.00 94 1013.0
20260906041605 20 0 0.0 0.0 0.00 0.00 0.00 94 1013.1
20260906040109 20 0 0.0 0.0 0.00 0.00 0.00 93 1013.3
20260906034606 20 0 0.0 0.0 0.00 0.00 0.00 93 1013.4
20260906033104 20 0 0.0 0.0 0.00 0.00 0.00 92 1013.4
20260906031604 20 0 0.0 0.0 0.00 0.00 0.00 92 1013.4
20260906030109 21 0 0.0 0.0 0.00 0.00 0.00 92 1013.4
20260906024604 20 0 0.0 0.0 0.00 0.00 0.00 92 1013.1
20260906023110 21 0 0.0 0.0 0.00 0.00 0.00 89 1013.1
20260906021611 21 0 0.0 0.0 0.00 0.00 0.00 88 1013.2
20260906020109 21 159 3.2 8.0 0.00 0.00 0.00 89 1013.2
20260906014608 21 0 0.0 0.0 0.00 0.00 0.00 87 1013.0
20260906013106 22 0 0.0 0.0 0.00 0.00 0.00 87 1013.0
20260906011609 22 0 0.0 0.0 0.00 0.00 0.00 86 1012.7
20260906010112 22 0 0.0 0.0 0.00 0.00 0.00 86 1012.7
20260906004604 22 0 0.0 3.2 0.00 0.00 0.00 83 1012.4
20260906003108 23 0 0.0 3.2 0.00 0.00 0.00 81 1012.1
20260906001606 23 196 0.0 4.8 0.00 0.00 0.00 83 1011.9
20260906000111 23 0 0.0 0.0 0.00 0.00 0.00 82 1011.9
20260905234606 24 0 0.0 0.0 0.00 0.00 0.00 79 1011.7
20260905233117 25 0 0.0 4.8 0.00 0.00 0.00 77 1011.8
20260905231611 26 194 1.6 4.8 0.00 0.00 0.00 73 1011.7
20260905230108 26 0 1.6 4.8 0.00 0.00 0.00 72 1011.7
20260905224607 26 0 0.0 1.6 0.00 0.00 0.00 68 1011.6
20260905223108 26 187 1.6 6.4 0.00 0.00 0.00 70 1011.7
20260905221607 26 177 3.2 8.0 0.00 0.00 0.00 68 1011.7
20260905220108 26 196 3.2 9.7 0.00 0.00 0.00 66 1011.6
20260905214610 27 215 1.6 9.7 0.00 0.00 0.00 65 1011.9
20260905213113 26 0 4.8 14.5 0.00 0.00 0.00 70 1012.0
20260905211613 26 175 3.2 12.9 0.00 0.00 0.00 69 1012.1
20260905210112 25 188 4.8 12.9 0.00 0.00 0.00 73 1012.0
20260905204608 25 198 3.2 11.3 0.00 0.00 0.00 71 1012.2
20260905203107 25 204 6.4 17.7 0.00 0.00 0.00 70 1012.4
20260905201607 25 188 4.8 14.5 0.00 0.00 0.00 74 1012.4
20260905200108 24 261 4.8 17.7 0.00 0.00 0.00 75 1012.7
20260905194607 24 198 4.8 12.9 0.00 0.00 0.00 75 1012.8
20260905193105 24 167 3.2 14.5 0.00 0.00 0.00 74 1013.0
20260905191606 24 240 3.2 8.0 0.00 0.00 0.00 68 1013.0
20260905190104 24 94 1.6 9.7 0.00 0.00 0.00 67 1012.5
20260905184611 25 292 3.2 11.3 0.00 0.00 0.00 67 1012.8
20260905183119 26 0 1.6 12.9 0.00 0.00 0.00 58 1012.0
20260905181606 27 12 8.0 16.1 0.00 0.00 0.00 56 1012.5
20260905180109 28 82 3.2 14.5 0.00 0.00 0.00 59 1013.1
20260905174606 28 43 9.7 32.2 0.00 0.00 0.00 56 1013.6
20260905173113 30 44 12.9 29.0 0.00 0.00 0.00 50 1014.2
20260905171605 32 28 3.2 16.1 0.00 0.00 0.00 53 1013.7
20260905170109 33 0 3.2 12.9 0.00 0.00 0.00 49 1013.8
20260905164609 32 167 4.8 12.9 0.00 0.00 0.00 53 1013.8
20260905163110 32 253 3.2 9.7 0.00 0.00 0.00 55 1013.9
20260905161608 31 94 1.6 9.7 0.00 0.00 0.00 57 1014.1
20260905160105 32 304 3.2 14.5 0.00 0.00 0.00 57 1014.5
20260905154607 31 296 3.2 12.9 0.00 0.00 0.00 59 1014.4
20260905153117 30 188 3.2 9.7 0.00 0.00 0.00 62 1014.2
20260905151611 30 232 3.2 9.7 0.00 0.00 0.00 66 1014.2
20260905150107 29 180 1.6 11.3 0.00 0.00 0.00 69 1014.3
20260905144605 28 226 4.8 11.3 0.00 0.00 0.00 72 1014.3
20260905143109 27 273 1.6 8.0 0.00 0.00 0.00 74 1014.5
20260905141629 26 222 4.8 9.7 0.00 0.00 0.00 76 1014.5
20260905140109 25 216 1.6 9.7 0.00 0.00 0.00 79 1014.4
20260905134604 25 193 0.0 6.4 0.00 0.00 0.00 82 1014.6
20260905133103 24 0 0.0 6.4 0.00 0.00 0.00 86 1014.6
20260905131619 23 294 0.0 4.8 0.00 0.00 0.00 88 1014.6
20260905130106 22 0 1.6 6.4 0.00 0.00 0.00 90 1014.8
20260905124608 22 198 0.0 4.8 0.00 0.00 0.00 90 1014.7
20260905123110 21 238 1.6 6.4 0.00 0.00 0.00 94 1014.6
20260905121609 21 202 0.0 3.2 0.00 0.00 0.00 96 1014.7
20260905120108 20 202 3.2 4.8 0.00 0.00 0.00 96 1014.5
20260905114611 20 0 0.0 3.2 0.00 0.00 0.00 96 1014.5
20260905113108 20 0 0.0 3.2 0.00 0.00 0.00 96 1014.4
20260905111605 20 0 0.0 3.2 0.00 0.00 0.00 96 1014.1
20260905110107 19 0 0.0 0.0 0.00 0.00 0.00 96 1013.9
20260905104606 20 0 0.0 0.0 0.00 0.00 0.00 96 1013.8
20260905103111 20 0 0.0 0.0 0.00 0.00 0.00 96 1013.8
20260905101607 20 0 0.0 0.0 0.00 0.00 0.00 96 1013.4
20260905100126 20 0 0.0 0.0 0.00 0.00 0.00 96 1013.4
20260905094606 20 0 0.0 0.0 0.00 0.00 0.00 96 1013.4
20260905093106 20 0 0.0 0.0 0.00 0.00 0.00 96 1013.4
20260905091605 20 0 0.0 0.0 0.00 0.00 0.00 96 1013.3
20260905090136 20 0 0.0 0.0 0.00 0.00 0.00 96 1013.3
20260905084604 20 0 0.0 0.0 0.00 0.00 0.00 95 1013.5
20260905083110 20 0 0.0 0.0 0.00 0.00 0.00 96 1013.8
20260905081606 20 0 0.0 0.0 0.00 0.00 0.00 95 1013.7
20260905080105 20 0 0.0 0.0 0.00 0.00 0.00 95 1014.0
20260905074609 20 0 0.0 0.0 0.00 0.00 0.00 95 1014.1
20260905073108 20 0 0.0 0.0 0.00 0.00 0.00 95 1014.2
20260905071606 20 0 0.0 0.0 0.00 0.00 0.00 95 1014.3
20260905070110 21 0 0.0 1.6 0.00 0.00 0.00 95 1014.3
20260905064607 21 0 0.0 4.8 0.00 0.00 0.00 94 1014.4
20260905063106 21 0 1.6 3.2 0.00 0.00 0.00 94 1014.6
20260905061607 21 0 0.0 0.0 0.00 0.00 0.00 93 1014.9
20260905060104 21 0 0.0 0.0 0.00 0.00 0.00 93 1015.0
20260905054609 21 0 0.0 0.0 0.00 0.00 0.00 92 1015.3
20260905053109 21 107 0.0 3.2 0.00 0.00 0.00 92 1015.4